MDT,Max TemperatureF,Mean TemperatureF,Min TemperatureF,Max Dew PointF,MeanDew PointF,Min DewpointF,Max Humidity, Mean Humidity, Min Humidity, Max Sea Level PressureIn, Mean Sea Level PressureIn, Min Sea Level PressureIn, Max VisibilityMiles, Mean VisibilityMiles, Min VisibilityMiles, Max Wind SpeedMPH, Mean Wind SpeedMPH, Max Gust SpeedMPH,PrecipitationIn, CloudCover, Events, WindDirDegrees
2012-7-1,96,78,60,63,59,48,87,53,25,29.88,29.79,29.70,10,10,10,20,8,26,0.00,1,,120
2012-7-2,90,80,72,64,56,47,66,43,23,29.83,29.75,29.62,10,10,9,24,13,32,0.00,4,Thunderstorm,286
2012-7-3,100,82,65,64,55,44,79,45,15,29.83,29.70,29.57,10,10,10,18,7,25,0.00,1,,168
2012-7-4,88,80,72,58,43,31,58,29,14,29.88,29.76,29.55,10,10,10,37,15,50,0.00,2,,18
2012-7-5,93,80,68,68,59,42,89,55,33,29.96,29.87,29.76,10,10,10,24,10,30,0.59,6,Rain-Thunderstorm,145
2012-7-6,74,66,60,70,63,57,100,89,63,30.23,30.01,29.78,10,10,9,28,14,34,0.06,7,Rain,2
2012-7-7,70,65,60,63,61,59,100,89,69,30.28,30.26,30.22,10,10,3,9,4,,0.02,8,,55
2012-7-8,82,72,63,61,59,57,90,67,42,30.27,30.22,30.17,10,10,10,10,4,,0.00,5,,126
2012-7-9,88,74,61,61,53,47,82,49,25,30.21,30.16,30.10,10,10,10,15,7,21,0.00,0,,171
2012-7-10,92,76,62,58,50,44,60,37,20,30.12,30.04,29.95,10,10,10,18,9,29,0.00,0,,184
2012-7-11,98,83,68,59,51,45,62,36,16,30.01,29.90,29.80,10,10,9,26,10,37,0.00,2,Rain-Thunderstorm,196
2012-7-12,90,80,68,56,53,50,62,41,26,29.99,29.95,29.88,10,10,10,17,9,25,0.03,5,,33
2012-7-13,96,80,64,55,51,45,68,37,19,30.00,29.97,29.92,10,10,10,12,6,,0.00,0,,169
2012-7-14,102,84,67,56,51,48,55,33,18,29.97,29.89,29.78,10,10,10,23,11,33,0.00,2,,162
2012-7-15,101,87,74,60,51,41,60,31,13,29.81,29.73,29.65,10,10,10,23,11,31,0.00,2,,201
2012-7-16,102,85,69,66,57,48,88,47,16,29.91,29.75,29.60,10,9,2,30,8,39,0.27,4,Rain-Thunderstorm,312
2012-7-17,86,74,62,68,61,54,88,68,46,29.96,29.86,29.71,10,8,1,44,14,54,0.56,5,Rain-Thunderstorm,348
2012-7-18,95,79,64,67,60,54,88,61,26,29.95,29.89,29.84,10,10,10,18,8,22,0.00,2,Rain-Thunderstorm,133
2012-7-19,104,88,73,58,52,43,52,33,13,29.91,29.88,29.82,10,10,8,12,8,,0.00,1,,147
2012-7-20,98,84,70,64,58,50,76,46,23,30.06,29.96,29.90,10,9,2,28,10,33,0.05,4,Rain-Thunderstorm,34
2012-7-21,92,78,66,70,65,62,91,69,38,30.45,29.99,29.92,10,9,2,23,7,32,0.27,5,Rain-Thunderstorm,304
2012-7-22,95,81,67,62,57,52,73,42,24,29.99,29.95,29.90,10,9,2,16,7,26,0.00,4,Rain,151
2012-7-23,98,84,71,65,60,57,72,48,27,29.97,29.89,29.81,10,10,10,20,8,25,0.00,3,Rain-Thunderstorm,64
2012-7-24,93,80,66,68,64,60,85,66,37,29.84,29.77,29.68,10,7,0,30,10,36,0.64,6,Rain-Thunderstorm,301
2012-7-25,84,74,64,61,57,50,61,51,40,29.92,29.82,29.75,10,10,10,26,16,33,11.59,5,Rain-Thunderstorm,306
2012-7-26,86,72,58,52,48,43,74,43,22,30.08,29.98,29.90,10,10,10,23,10,29,0.00,1,,344
2012-7-27,95,75,55,61,55,46,76,57,19,30.09,29.99,29.85,10,9,2,29,12,46,0.18,4,Rain-Thunderstorm,153
2012-7-28,94,78,62,55,50,43,53,30,17,29.97,29.95,29.90,10,10,10,17,7,21,0.00,1,,4
2012-7-29,89,80,71,,,,,,,30.03,29.98,29.92,10,9,2,21,6,25,0.03,6,Rain,181
2012-7-30,92,77,63,63,49,45,62,35,19,30.07,29.99,29.93,10,10,10,15,7,20,0.00,2,,80
2012-7-31,99,81,64,61,47,41,80,31,14,29.96,29.89,29.83,10,10,10,33,10,41,0.00,3,Rain-Thunderstorm,199